Weather History for Olympia, WA

Change the Weather History Date:

Friday, December 7, 2012

  Actual Average Record
Temperature  
Mean Temperature 43 °F 39 °F  
Max Temperature 46 °F 45 °F 58 °F (1962)
Min Temperature 40 °F 33 °F 5 °F (1972)
Degree Days  
Heating Degree Days 22 26  
Month to date heating degree days 139 180  
Since 1 July heating degree days 1526 1625  
Cooling Degree Days 0 0  
Month to date cooling degree days 0 0  
Year to date cooling degree days 82 106  
Moisture  
Dew Point 39 °F    
Average Humidity 83    
Maximum Humidity 100    
Minimum Humidity 65    
Precipitation  
Precipitation 0.32 in 0.27 in 1.13 in (1998)
Month to date precipitation 3.51 1.94  
Year to date precipitation 53.36 44.48  
Sea Level Pressure  
Sea Level Pressure 30.08 in    
Wind  
Wind Speed 9 mph (SW)    
Max Wind Speed 20 mph    
Max Gust Speed 25 mph    
Visibility 9 miles    
Events Rain    
T = Trace of Precipitation, MM = Missing Value Source: NWS Daily Summary

Daily Weather History Graph

Daily Weather History Graph

Search for Another Location

Airport:

Trip Planner

Search our weather history database for the weather conditions in past years. The results will help you decide how hot, cold, wet, or windy it might be!

Date:

Astronomy

Dec. 07, 2012 Rise Set
Actual Time 7:43 AM PST 4:22 PM PST
Civil Twilight 7:08 AM PST 4:57 PM PST
Nautical Twilight 6:30 AM PST 5:36 PM PST
Astronomical Twilight 5:53 AM PST 6:13 PM PST
Moon 12:47 AM PST (12/7) 12:41 PM PST (12/7)
Length of Visible Light 9h 48m
Length of Day
8h 38m
Last Quarter, 37% of the Moon is Illuminated
Dec 7
Last Quarter
Dec 13
New
Dec 19
First Quarter
Dec 28
Full
Jan 4
Last Quarter

Hourly Weather History & Observations

Time (PST) Temp. Windchill Dew Point Humidity Pressure Visibility Wind Dir Wind Speed Gust Speed Precip Events Conditions
12:19 AM 41.0 °F 36.4 °F 39.2 °F 93% 30.12 in 10.0 mi South 6.9 mph - N/A   Overcast
12:46 AM 42.8 °F 39.3 °F 41.0 °F 93% 30.11 in 10.0 mi South 5.8 mph - 0.00 in   Overcast
12:54 AM 42.1 °F 37.7 °F 41.0 °F 96% 30.12 in 9.0 mi South 6.9 mph - 0.00 in Rain Light Rain
1:34 AM 42.8 °F 38.6 °F 41.0 °F 93% 30.11 in 10.0 mi SSW 6.9 mph - 0.00 in   Overcast
1:54 AM 43.0 °F 38.2 °F 41.0 °F 93% 30.10 in 10.0 mi SSW 8.1 mph - 0.00 in Rain Light Rain
2:44 AM 42.8 °F 37.5 °F 42.8 °F 100% 30.10 in 6.0 mi SSW 9.2 mph - 0.04 in Rain Light Rain
2:54 AM 43.0 °F 37.2 °F 42.1 °F 97% 30.10 in 8.0 mi SSW 10.4 mph - 0.04 in Rain Light Rain
3:54 AM 44.1 °F 38.6 °F 41.0 °F 89% 30.08 in 6.0 mi SSW 10.4 mph - 0.01 in Rain Light Rain
4:32 AM 42.8 °F 37.0 °F 41.0 °F 93% 30.07 in 5.0 mi SSW 10.4 mph - 0.04 in Rain Light Rain
4:54 AM 43.0 °F 37.2 °F 42.1 °F 97% 30.07 in 10.0 mi South 10.4 mph - 0.06 in Rain Light Rain
5:03 AM 42.8 °F 37.5 °F 42.8 °F 100% 30.06 in 8.0 mi South 9.2 mph - 0.00 in Rain Light Rain
5:54 AM 44.1 °F 39.0 °F 42.1 °F 93% 30.05 in 6.0 mi SSW 9.2 mph - 0.03 in Rain Light Rain
6:09 AM 44.6 °F 40.2 °F 42.8 °F 93% 30.04 in 5.0 mi South 8.1 mph - 0.01 in Rain Light Rain
6:18 AM 42.8 °F 38.0 °F 42.8 °F 100% 30.04 in 9.0 mi South 8.1 mph - 0.01 in Rain Light Rain
6:54 AM 44.1 °F 39.0 °F 42.1 °F 93% 30.03 in 9.0 mi SSW 9.2 mph - 0.02 in   Overcast
7:30 AM 44.6 °F 40.2 °F 42.8 °F 93% 30.04 in 2.5 mi West 8.1 mph - 0.06 in Rain Rain
7:42 AM 44.6 °F 39.2 °F 41.0 °F 87% 30.03 in 5.0 mi SW 10.4 mph 20.7 mph 0.09 in Rain Light Rain
7:54 AM 44.1 °F 39.0 °F 41.0 °F 89% 30.03 in 10.0 mi SSW 9.2 mph - 0.10 in   Overcast
8:02 AM 44.6 °F 39.7 °F 41.0 °F 87% 30.02 in 10.0 mi SSW 9.2 mph - N/A   Overcast
8:54 AM 44.1 °F 39.5 °F 41.0 °F 89% 30.04 in 9.0 mi SSW 8.1 mph - 0.02 in Rain Light Rain
9:54 AM 45.0 °F 41.2 °F 43.0 °F 93% 30.03 in 9.0 mi SSW 6.9 mph - 0.02 in Rain Light Rain
10:06 AM 46.4 °F 42.4 °F 44.6 °F 93% 30.02 in 10.0 mi SSW 8.1 mph - N/A   Overcast
10:45 AM 46.4 °F 42.4 °F 42.8 °F 87% 30.03 in 5.0 mi SW 8.1 mph - 0.01 in Rain Light Rain
10:54 AM 46.0 °F 41.9 °F 43.0 °F 89% 30.04 in 8.0 mi SW 8.1 mph - 0.01 in Rain Light Rain
11:14 AM 46.4 °F 42.9 °F 41.0 °F 81% 30.03 in 10.0 mi WSW 6.9 mph - 0.01 in   Overcast
11:54 AM 46.0 °F 41.4 °F 41.0 °F 83% 30.03 in 10.0 mi WSW 9.2 mph - 0.01 in   Overcast
12:54 PM 45.0 °F 39.7 °F 37.0 °F 74% 30.05 in 10.0 mi West 10.4 mph 20.7 mph 0.00 in   Overcast
1:54 PM 46.0 °F 42.5 °F 35.1 °F 66% 30.06 in 10.0 mi WSW 6.9 mph - N/A   Mostly Cloudy
2:36 PM 42.8 °F 38.0 °F 35.6 °F 76% 30.07 in 7.0 mi SW 8.1 mph 21.9 mph 0.00 in Rain Light Rain
2:54 PM 44.1 °F 40.8 °F 33.1 °F 65% 30.08 in 10.0 mi SW 5.8 mph - 0.00 in   Scattered Clouds
3:54 PM 43.0 °F 37.7 °F 34.0 °F 71% 30.10 in 10.0 mi WSW 9.2 mph 16.1 mph N/A   Overcast
4:54 PM 42.8 °F 38.0 °F 33.8 °F 70% 30.11 in 10.0 mi WSW 8.1 mph - N/A   Partly Cloudy
5:54 PM 42.1 °F 35.7 °F 33.1 °F 70% 30.12 in 10.0 mi SW 11.5 mph - N/A   Partly Cloudy
6:54 PM 41.0 °F 33.5 °F 33.1 °F 73% 30.12 in 10.0 mi SW 13.8 mph - N/A   Partly Cloudy
7:54 PM 41.0 °F 33.9 °F 33.1 °F 73% 30.15 in 10.0 mi SW 12.7 mph - N/A   Scattered Clouds
8:54 PM 41.0 °F 34.3 °F 33.1 °F 73% 30.16 in 10.0 mi SW 11.5 mph - N/A   Clear
9:54 PM 41.0 °F 34.3 °F 34.0 °F 76% 30.17 in 10.0 mi SSW 11.5 mph - N/A   Overcast
10:54 PM 39.9 °F 32.1 °F 34.0 °F 79% 30.17 in 10.0 mi SSW 13.8 mph - N/A   Mostly Cloudy
11:54 PM 39.9 °F 35.8 °F 34.0 °F 79% 30.19 in 10.0 mi SW 5.8 mph - N/A   Clear